period_start,C,m1,H,J0,J1,J2,J3,J4,J5,JA,JB,JC,JD,JJ,JK,JN,#
2014-02-10 00:00:31,0.49,2.29,0.00,-6.85,-0.99,0.69,7.07,31.13,1039.57,2146.00,2840.43,2839.47,3068.24,350.67,369.02,7.32,0000 0000 0000 0000 000000
2014-02-10 00:01:31,0.49,2.29,0.00,-6.82,-0.99,0.69,6.91,31.21,1039.57,2146.00,2839.51,2838.76,3067.49,350.31,368.72,7.33,0000 0000 0000 0000 000000
2014-02-10 00:02:32,0.47,2.29,0.00,-6.81,-0.99,0.71,6.97,31.25,1039.57,2146.00,2838.53,2838.07,3066.68,350.08,368.47,7.33,0000 0000 0000 0000 000000
2014-02-10 00:03:32,0.49,2.30,0.00,-6.77,-0.99,0.71,7.05,31.33,1039.57,2146.00,2837.59,2837.35,3065.93,350.06,368.00,7.34,0000 0000 0000 0000 000000
2014-02-10 00:04:32,0.49,2.30,0.00,-6.71,-0.99,0.70,6.80,31.17,1039.57,2146.00,2836.69,2836.60,3065.21,349.71,368.37,7.34,0000 0000 0000 0000 000000
2014-02-10 00:05:32,0.46,2.30,0.00,-6.71,-0.99,0.70,6.97,31.08,1039.57,2146.00,2835.79,2835.93,3064.44,350.43,368.69,7.35,0000 0000 0000 0000 000000
2014-02-10 00:06:33,0.45,2.31,0.00,-6.74,-1.00,0.67,6.88,31.17,1039.57,2146.00,2834.93,2835.30,3063.71,350.73,369.04,7.36,0000 0000 0000 0000 000000
2014-02-10 00:07:33,0.45,2.31,0.00,-6.73,-1.00,0.71,6.84,30.92,1039.57,2146.00,2834.08,2834.59,3062.99,349.63,367.72,7.36,0000 0000 0000 0000 000000
2014-02-10 00:08:33,0.44,2.31,0.00,-6.79,-1.00,0.66,6.83,31.08,1039.57,2146.00,2833.20,2833.93,3062.29,349.84,367.85,7.37,0000 0000 0000 0000 000000
2014-02-10 00:09:33,0.46,2.31,0.00,-6.75,-0.99,0.65,7.00,31.04,1039.57,2146.00,2832.29,2833.25,3061.58,350.18,368.47,7.37,0000 0000 0000 0000 000000
2014-02-10 00:10:34,0.48,2.32,0.00,-6.73,-0.99,0.69,6.80,30.88,1039.57,2146.00,2831.40,2832.53,3060.83,350.15,368.43,7.38,0000 0000 0000 0000 000000
2014-02-10 00:11:34,0.44,2.32,0.00,-6.71,-1.00,0.70,7.02,31.04,1039.57,2146.00,2830.54,2831.89,3060.09,350.33,368.57,7.38,0000 0000 0000 0000 000000
2014-02-10 00:12:34,0.46,2.32,0.00,-6.66,-1.00,0.71,6.86,31.21,1039.57,2146.00,2829.67,2831.29,3059.38,349.74,367.89,7.39,0000 0000 0000 0000 000000
2014-02-10 00:13:35,0.46,2.32,0.00,-6.68,-1.00,0.69,6.83,31.08,1039.57,2146.00,2828.81,2830.63,3058.63,350.27,368.47,7.40,0000 0000 0000 0000 000000
2014-02-10 00:14:35,0.44,2.33,0.00,-6.69,-1.00,0.69,6.65,31.04,1039.57,2146.00,2827.83,2829.87,3057.87,349.09,367.24,7.40,0000 0000 0000 0000 000000
2014-02-10 00:15:35,0.49,2.33,0.00,-6.73,-1.00,0.63,6.88,31.13,1039.57,2146.00,2826.90,2829.22,3057.16,349.96,368.14,7.41,0000 0000 0000 0000 000000
2014-02-10 00:16:36,0.49,2.33,0.00,-6.77,-1.00,0.65,7.08,31.38,1039.57,2146.00,2826.05,2828.52,3056.45,350.37,368.70,7.41,0000 0000 0000 0000 000000
2014-02-10 00:17:36,0.44,2.34,0.00,-6.75,-1.00,0.65,6.98,31.38,1039.57,2146.00,2825.16,2827.85,3055.73,350.17,368.16,7.42,0000 0000 0000 0000 000000
2014-02-10 00:18:36,0.45,2.34,0.00,-6.69,-1.00,0.63,6.92,31.21,1039.57,2146.00,2824.27,2827.22,3054.97,350.72,369.16,7.43,0000 0000 0000 0000 000000
2014-02-10 00:19:36,0.48,2.34,0.00,-6.67,-1.00,0.63,6.63,31.17,1039.57,2146.00,2823.40,2826.53,3054.28,349.52,367.68,7.43,0000 0000 0000 0000 000000
2014-02-10 00:20:36,0.47,2.34,0.00,-6.64,-1.00,0.65,6.99,31.17,1039.57,2146.00,2822.49,2825.78,3053.52,350.19,368.32,7.44,0000 0000 0000 0000 000000
2014-02-10 00:21:37,0.46,2.35,0.00,-6.63,-1.00,0.68,6.79,31.00,1039.57,2146.00,2821.61,2825.19,3052.82,349.68,368.15,7.44,0000 0000 0000 0000 000000
2014-02-10 00:22:37,0.45,2.35,0.00,-6.66,-1.00,0.68,6.86,31.08,1039.58,2146.00,2820.77,2824.49,3052.11,350.33,368.52,7.45,0000 0000 0000 0000 000000
2014-02-10 00:23:37,0.44,2.35,0.00,-6.65,-1.00,0.69,6.87,30.96,1039.57,2146.00,2819.89,2823.79,3051.32,349.73,367.87,7.45,0000 0000 0000 0000 000000
2014-02-10 00:24:37,0.47,2.36,0.00,-6.66,-1.00,0.73,6.77,30.96,1039.57,2146.00,2818.92,2823.16,3050.56,350.25,368.14,7.46,0000 0000 0000 0000 000000
2014-02-10 00:25:38,0.48,2.36,0.00,-6.65,-1.00,0.69,6.98,31.13,1039.57,2146.00,2818.03,2822.45,3049.81,350.75,369.30,7.47,0000 0000 0000 0000 000000
2014-02-10 00:26:38,0.46,2.36,0.00,-6.66,-1.00,0.66,6.78,31.08,1039.57,2146.00,2817.06,2821.70,3049.06,349.23,366.74,7.47,0000 0000 0000 0000 000000
2014-02-10 00:27:38,0.48,2.36,0.00,-6.63,-1.00,0.68,6.83,31.25,1039.58,2146.00,2816.24,2821.10,3048.38,350.32,368.47,7.48,0000 0000 0000 0000 000000
2014-02-10 00:28:39,0.46,2.37,0.00,-6.61,-1.00,0.71,7.04,31.33,1039.57,2146.00,2815.43,2820.41,3047.64,349.85,367.94,7.48,0000 0000 0000 0000 000000
2014-02-10 00:29:39,0.42,2.37,0.00,-6.64,-1.00,0.74,6.83,31.04,1039.57,2146.00,2814.55,2819.69,3046.90,349.78,367.91,7.49,0000 0000 0000 0000 000000
2014-02-10 00:30:39,0.47,2.37,0.00,-6.65,-1.00,0.69,6.92,31.33,1039.57,2146.00,2813.58,2818.95,3046.10,350.09,368.24,7.50,0000 0000 0000 0000 000000
2014-02-10 00:31:40,0.53,2.38,0.00,-6.66,-1.00,0.65,7.08,31.46,1039.58,2146.00,2812.66,2818.25,3045.35,351.18,369.41,7.50,0000 0000 0000 0000 000000
2014-02-10 00:32:40,0.50,2.38,0.00,-6.68,-1.00,0.67,6.97,31.25,1039.57,2146.00,2811.73,2817.51,3044.57,350.12,368.33,7.51,0000 0000 0000 0000 000000
2014-02-10 00:33:40,0.45,2.38,0.00,-6.69,-1.00,0.69,7.05,31.33,1039.59,2146.00,2810.78,2816.80,3043.79,351.00,369.26,7.51,0000 0000 0000 0000 000000
2014-02-10 00:34:40,0.47,2.38,0.00,-6.67,-1.00,0.68,6.98,31.04,1039.63,2145.98,2809.86,2816.19,3043.02,349.98,368.18,7.52,0000 0000 0000 0000 000000
2014-02-10 00:35:41,0.48,2.39,0.00,-6.69,-1.00,0.70,6.76,31.21,1039.62,2145.98,2808.90,2815.50,3042.30,349.50,367.70,7.52,0000 0000 0000 0000 000000
2014-02-10 00:36:41,0.45,2.39,0.00,-6.67,-1.00,0.75,6.87,30.96,1039.59,2145.98,2808.07,2814.88,3041.53,350.02,368.17,7.53,0000 0000 0000 0000 000000
2014-02-10 00:37:41,0.47,2.39,0.00,-6.74,-1.00,0.72,7.01,31.08,1039.59,2145.99,2807.13,2814.21,3040.76,350.75,369.20,7.54,0000 0000 0000 0000 000000
2014-02-10 00:38:42,0.50,2.40,0.00,-6.75,-1.00,0.73,7.01,31.13,1039.62,2145.98,2806.25,2813.49,3040.14,350.56,368.91,7.54,0000 0000 0000 0000 000000
2014-02-10 00:39:42,0.45,2.40,0.00,-6.72,-1.00,0.72,6.91,31.13,1039.61,2145.99,2805.37,2812.85,3039.39,350.59,369.27,7.55,0000 0000 0000 0000 000000
2014-02-10 00:40:42,0.47,2.40,0.00,-6.71,-1.00,0.72,6.87,30.88,1039.62,2145.99,2804.48,2812.17,3038.60,350.22,368.49,7.55,0000 0000 0000 0000 000000
2014-02-10 00:41:42,0.47,2.40,0.00,-6.68,-1.00,0.67,6.85,31.08,1039.62,2145.99,2803.58,2811.46,3037.83,350.00,368.53,7.56,0000 0000 0000 0000 000000
2014-02-10 00:42:42,0.47,2.41,0.00,-6.65,-1.00,0.62,6.64,30.96,1039.64,2145.99,2802.68,2810.76,3037.12,349.46,367.69,7.57,0000 0000 0000 0000 000000
2014-02-10 00:43:43,0.47,2.41,0.00,-6.66,-1.00,0.66,6.79,31.13,1039.67,2145.99,2801.83,2810.12,3036.37,349.87,368.20,7.57,0000 0000 0000 0000 000000
2014-02-10 00:44:43,0.48,2.41,0.00,-6.67,-0.99,0.70,6.62,31.08,1039.62,2145.98,2800.89,2809.39,3035.61,349.97,368.38,7.58,0000 0000 0000 0000 000000
2014-02-10 00:45:43,0.47,2.41,0.00,-6.68,-0.99,0.71,6.98,30.96,1039.64,2145.99,2799.97,2808.62,3034.77,350.52,368.76,7.58,0000 0000 0000 0000 000000
2014-02-10 00:46:44,0.49,2.42,0.00,-6.66,-0.99,0.66,6.82,30.88,1039.62,2145.98,2799.03,2808.01,3034.05,349.46,367.65,7.59,0000 0000 0000 0000 000000
2014-02-10 00:47:44,0.51,2.42,0.00,-6.68,-0.99,0.66,6.88,31.13,1039.63,2145.99,2798.13,2807.34,3033.34,349.94,368.16,7.60,0000 0000 0000 0000 000000
2014-02-10 00:48:44,0.46,2.42,0.00,-6.71,-0.99,0.70,6.89,31.04,1039.61,2145.99,2797.26,2806.63,3032.60,349.73,367.96,7.60,0000 0000 0000 0000 000000
2014-02-10 00:49:45,0.45,2.43,0.00,-6.73,-0.99,0.73,6.93,31.13,1039.63,2145.99,2796.36,2805.96,3031.92,350.87,369.20,7.61,0000 0000 0000 0000 000000
2014-02-10 00:50:45,0.49,2.43,0.00,-6.73,-0.99,0.75,6.83,30.96,1039.66,2145.99,2795.45,2805.28,3031.09,350.30,368.61,7.61,0000 0000 0000 0000 000000
2014-02-10 00:51:45,0.48,2.43,0.00,-6.73,-0.99,0.69,6.98,31.04,1039.70,2145.98,2794.50,2804.55,3030.32,350.44,368.76,7.62,0000 0000 0000 0000 000000
2014-02-10 00:52:45,0.49,2.43,0.00,-6.76,-0.99,0.67,6.84,30.96,1039.72,2145.98,2793.57,2803.78,3029.53,349.94,368.28,7.62,0000 0000 0000 0000 000000
2014-02-10 00:53:46,0.49,2.44,0.00,-6.75,-0.99,0.67,6.75,31.08,1039.79,2145.99,2792.72,2803.14,3028.81,349.64,368.51,7.63,0000 0000 0000 0000 000000
2014-02-10 00:54:46,0.47,2.44,0.00,-6.74,-0.99,0.67,6.89,30.92,1039.71,2145.99,2791.89,2802.43,3028.12,349.63,368.06,7.64,0000 0000 0000 0000 000000
2014-02-10 00:55:46,0.45,2.44,0.00,-6.72,-0.99,0.69,6.79,31.08,1039.66,2145.99,2790.91,2801.73,3027.36,349.63,367.90,7.64,0000 0000 0000 0000 000000
2014-02-10 00:56:47,0.49,2.45,0.00,-6.62,-0.98,0.71,6.93,31.21,1039.67,2145.99,2789.91,2801.05,3026.55,350.13,368.35,7.65,0000 0000 0000 0000 000000
2014-02-10 00:57:47,0.51,2.45,0.00,-6.61,-0.98,0.68,7.03,31.08,1039.77,2145.99,2788.99,2800.37,3025.75,350.20,368.38,7.65,0000 0000 0000 0000 000000
2014-02-10 00:58:47,0.48,2.45,0.00,-6.63,-0.98,0.70,6.89,31.13,1039.84,2145.98,2788.18,2799.65,3025.06,350.47,368.32,7.66,0000 0000 0000 0000 000000
2014-02-10 00:59:47,0.47,2.45,0.00,-6.62,-0.98,0.69,7.00,30.92,1039.91,2145.98,2787.30,2798.97,3024.32,351.22,369.66,7.67,0000 0000 0000 0000 000000
2014-02-10 01:00:48,0.47,2.46,0.00,-6.63,-0.98,0.70,6.84,30.83,1039.97,2145.96,2786.37,2798.21,3023.55,350.34,368.36,7.67,0000 0000 0000 0000 000000
2014-02-10 01:01:48,0.49,2.46,0.00,-6.63,-0.98,0.72,7.04,31.08,1040.01,2145.97,2785.44,2797.47,3022.77,350.48,368.69,7.68,0000 0000 0000 0000 000000
2014-02-10 01:02:48,0.48,2.46,0.00,-6.60,-0.98,0.75,6.98,31.13,1040.03,2145.98,2784.51,2796.80,3022.06,349.97,368.22,7.68,0000 0000 0000 0000 000000
2014-02-10 01:03:49,0.50,2.47,0.00,-6.63,-0.98,0.75,6.85,31.08,1039.98,2145.99,2783.63,2796.18,3021.33,349.51,367.78,7.69,0000 0000 0000 0000 000000
2014-02-10 01:04:49,0.44,2.47,0.00,-6.68,-0.98,0.76,7.03,31.00,1039.90,2145.99,2782.73,2795.49,3020.58,350.20,368.53,7.70,0000 0000 0000 0000 000000
2014-02-10 01:05:49,0.44,2.47,0.00,-6.71,-0.98,0.77,6.87,31.04,1039.78,2145.99,2781.83,2794.81,3019.84,350.17,368.49,7.70,0000 0000 0000 0000 000000
2014-02-10 01:06:50,0.51,2.47,0.00,-6.69,-0.98,0.75,6.80,30.92,1039.76,2145.99,2780.92,2794.18,3019.08,350.26,368.55,7.71,0000 0000 0000 0000 000000
2014-02-10 01:07:50,0.49,2.48,0.00,-6.68,-0.98,0.73,6.88,31.29,1039.80,2145.98,2780.07,2793.47,3018.33,350.55,368.48,7.71,0000 0000 0000 0000 000000
2014-02-10 01:08:50,0.47,2.48,0.00,-6.72,-0.98,0.70,6.96,31.21,1039.90,2145.98,2779.08,2792.67,3017.54,349.80,368.14,7.72,0000 0000 0000 0000 000000
2014-02-10 01:09:50,0.52,2.48,0.00,-6.67,-0.98,0.71,6.90,31.21,1039.97,2145.97,2778.14,2792.03,3016.76,350.42,368.77,7.72,0000 0000 0000 0000 000000
2014-02-10 01:10:50,0.49,2.49,0.00,-6.64,-0.98,0.75,6.83,31.04,1040.00,2145.95,2777.23,2791.32,3016.03,349.96,368.25,7.73,0000 0000 0000 0000 000000
2014-02-10 01:11:51,0.48,2.49,0.00,-6.67,-0.98,0.74,6.89,31.13,1039.94,2145.95,2776.35,2790.59,3015.32,350.40,368.73,7.74,0000 0000 0000 0000 000000
2014-02-10 01:12:51,0.47,2.49,0.00,-6.67,-0.98,0.69,6.93,31.08,1039.97,2145.97,2775.44,2789.93,3014.57,349.58,368.12,7.74,0000 0000 0000 0000 000000
2014-02-10 01:13:51,0.51,2.49,0.00,-6.65,-0.98,0.69,6.77,30.92,1039.96,2145.97,2774.54,2789.26,3013.82,349.45,368.12,7.75,0000 0000 0000 0000 000000
2014-02-10 01:14:51,0.45,2.50,0.00,-6.68,-0.98,0.75,6.89,31.25,1039.98,2145.98,2773.70,2788.54,3013.14,350.15,369.29,7.75,0000 0000 0000 0000 000000
2014-02-10 01:15:52,0.47,2.50,0.00,-6.74,-0.98,0.76,7.10,31.33,1040.02,2145.97,2772.83,2787.97,3012.44,350.72,369.16,7.76,0000 0000 0000 0000 000000
2014-02-10 01:16:52,0.43,2.50,0.00,-6.70,-0.98,0.72,6.80,30.79,1040.02,2145.96,2772.05,2787.34,3011.76,350.69,369.11,7.77,0000 0000 0000 0000 000000
2014-02-10 01:17:52,0.42,2.50,0.00,-6.66,-0.98,0.69,6.68,30.92,1040.01,2145.98,2771.17,2786.65,3011.08,349.56,367.82,7.77,0000 0000 0000 0000 000000
2014-02-10 01:18:53,0.50,2.51,0.00,-6.59,-0.98,0.70,6.83,31.04,1040.03,2145.96,2770.37,2786.02,3010.36,349.61,367.83,7.78,0000 0000 0000 0000 000000
2014-02-10 01:19:53,0.43,2.51,0.00,-6.57,-0.98,0.73,6.75,31.04,1040.03,2145.97,2769.50,2785.36,3009.62,349.98,368.11,7.78,0000 0000 0000 0000 000000
2014-02-10 01:20:53,0.42,2.51,0.00,-6.58,-0.98,0.74,6.82,31.17,1040.04,2145.97,2768.62,2784.68,3008.87,349.91,368.13,7.79,0000 0000 0000 0000 000000
2014-02-10 01:21:54,0.49,2.52,0.00,-6.61,-0.98,0.71,6.90,31.21,1040.03,2145.99,2767.79,2784.12,3008.25,349.92,368.17,7.79,0000 0000 0000 0000 000000
2014-02-10 01:22:54,0.43,2.52,0.00,-6.63,-0.98,0.71,6.75,30.79,1039.95,2145.98,2766.94,2783.45,3007.55,350.05,368.21,7.80,0000 0000 0000 0000 000000
2014-02-10 01:23:54,0.44,2.52,0.00,-6.62,-0.98,0.71,6.82,30.88,1039.96,2145.95,2766.05,2782.71,3006.95,350.03,368.29,7.81,0000 0000 0000 0000 000000
2014-02-10 01:24:54,0.47,2.52,0.00,-6.61,-0.98,0.73,7.13,31.33,1039.98,2145.93,2765.23,2782.12,3006.29,350.64,368.91,7.81,0000 0000 0000 0000 000000
2014-02-10 01:25:54,0.40,2.53,0.00,-6.65,-0.98,0.72,7.03,31.08,1040.00,2145.94,2764.45,2781.46,3005.55,351.02,369.38,7.82,0000 0000 0000 0000 000000
2014-02-10 01:26:55,0.43,2.53,0.00,-6.65,-0.98,0.69,6.66,30.71,1040.03,2145.96,2763.62,2780.94,3004.93,349.91,368.21,7.82,0000 0000 0000 0000 000000
2014-02-10 01:27:55,0.45,2.53,0.00,-6.65,-0.98,0.73,6.71,30.88,1040.05,2145.98,2762.75,2780.30,3004.30,349.65,367.95,7.83,0000 0000 0000 0000 000000
2014-02-10 01:28:56,0.42,2.53,0.00,-6.66,-0.98,0.73,6.82,31.00,1040.04,2145.99,2761.93,2779.61,3003.57,349.59,368.25,7.84,0000 0000 0000 0000 000000
2014-02-10 01:29:56,0.49,2.54,0.00,-6.66,-0.98,0.75,6.89,31.04,1040.03,2145.98,2761.15,2779.01,3002.89,350.06,368.40,7.84,0000 0000 0000 0000 000000
2014-02-10 01:30:56,0.44,2.54,0.00,-6.70,-0.98,0.71,6.90,30.96,1040.00,2145.96,2760.36,2778.35,3002.24,349.80,368.15,7.85,0000 0000 0000 0000 000000
2014-02-10 01:31:56,0.39,2.54,0.00,-6.71,-0.98,0.69,6.77,30.96,1040.04,2145.97,2759.51,2777.71,3001.53,349.70,368.09,7.85,0000 0000 0000 0000 000000
2014-02-10 01:32:57,0.47,2.54,0.00,-6.64,-0.98,0.71,6.86,31.08,1040.04,2145.97,2758.67,2777.15,3000.88,349.76,368.31,7.86,0000 0000 0000 0000 000000
2014-02-10 01:33:57,0.42,2.55,0.00,-6.61,-0.98,0.75,6.67,31.04,1040.05,2145.94,2757.84,2776.49,3000.24,349.66,368.25,7.87,0000 0000 0000 0000 000000
2014-02-10 01:34:57,0.39,2.55,0.00,-6.60,-0.98,0.71,6.90,31.21,1040.03,2145.93,2757.10,2775.96,2999.55,350.31,368.57,7.87,0000 0000 0000 0000 000000
2014-02-10 01:35:57,0.44,2.55,0.00,-6.65,-0.98,0.71,6.92,31.08,1040.05,2145.90,2756.20,2775.30,2998.85,350.47,368.59,7.88,0000 0000 0000 0000 000000
2014-02-10 01:36:58,0.43,2.55,0.00,-6.61,-0.98,0.70,6.78,31.08,1040.05,2145.92,2755.34,2774.58,2998.21,349.41,367.64,7.88,0000 0000 0000 0000 000000
2014-02-10 01:37:58,0.47,2.56,0.00,-6.60,-0.98,0.70,6.96,31.13,1040.02,2145.94,2754.51,2774.00,2997.50,349.44,367.65,7.89,0000 0000 0000 0000 000000
2014-02-10 01:38:58,0.44,2.56,0.00,-6.64,-0.98,0.72,6.95,31.21,1040.01,2145.96,2753.68,2773.39,2996.85,350.56,368.88,7.89,0000 0000 0000 0000 000000
2014-02-10 01:39:58,0.44,2.56,0.00,-6.65,-0.98,0.70,6.73,30.96,1040.02,2145.97,2752.84,2772.74,2996.19,349.89,368.20,7.90,0000 0000 0000 0000 000000
2014-02-10 01:40:59,0.48,2.56,0.00,-6.67,-0.98,0.72,6.92,31.25,1040.04,2145.96,2752.04,2772.13,2995.48,350.66,369.12,7.91,0000 0000 0000 0000 000000
2014-02-10 01:41:59,0.42,2.57,0.00,-6.63,-0.98,0.69,6.85,30.96,1040.03,2145.95,2751.25,2771.45,2994.72,349.69,367.96,7.91,0000 0000 0000 0000 000000
2014-02-10 01:42:59,0.45,2.57,0.00,-6.62,-0.98,0.70,6.88,31.04,1040.05,2145.95,2750.45,2770.82,2994.11,350.46,368.76,7.92,0000 0000 0000 0000 000000
2014-02-10 01:44:00,0.45,2.57,0.00,-6.63,-0.98,0.71,6.95,30.79,1040.05,2145.94,2749.61,2770.20,2993.43,349.87,368.16,7.92,0000 0000 0000 0000 000000
2014-02-10 01:45:00,0.41,2.57,0.00,-6.63,-0.98,0.68,6.90,31.04,1040.04,2145.90,2748.71,2769.53,2992.70,350.35,368.66,7.93,0000 0000 0000 0000 000000
2014-02-10 01:46:00,0.45,2.58,0.00,-6.64,-0.98,0.70,6.89,31.04,1040.03,2145.94,2747.96,2768.93,2992.06,350.49,368.82,7.94,0000 0000 0000 0000 000000
2014-02-10 01:47:00,0.50,2.58,0.00,-6.61,-0.98,0.67,7.02,31.04,1040.04,2145.93,2747.17,2768.30,2991.35,350.48,368.77,7.94,0000 0000 0000 0000 000000
2014-02-10 01:48:01,0.38,2.58,0.00,-6.61,-0.98,0.67,6.79,31.00,1040.03,2145.91,2746.27,2767.62,2990.59,349.97,367.96,7.95,0000 0000 0000 0000 000000
2014-02-10 01:49:01,0.51,2.59,0.00,-6.63,-0.98,0.70,6.81,30.88,1040.04,2145.93,2745.43,2767.03,2989.94,349.75,368.02,7.95,0000 0000 0000 0000 000000
2014-02-10 01:50:01,0.44,2.59,0.00,-6.66,-0.98,0.69,6.60,31.04,1040.03,2145.92,2744.58,2766.38,2989.23,348.56,366.63,7.96,0000 0000 0000 0000 000000
2014-02-10 01:51:01,0.46,2.59,0.00,-6.66,-0.98,0.70,7.05,31.17,1040.04,2145.92,2743.71,2765.72,2988.51,350.15,368.50,7.96,0000 0000 0000 0000 000000
2014-02-10 01:52:01,0.48,2.59,0.00,-6.67,-0.98,0.70,6.89,31.04,1040.04,2145.93,2742.85,2765.09,2987.81,349.89,367.80,7.97,0000 0000 0000 0000 000000
2014-02-10 01:53:01,0.45,2.60,0.00,-6.68,-0.97,0.73,6.84,31.50,1040.05,2145.89,2742.05,2764.43,2987.14,350.11,368.62,7.98,0000 0000 0000 0000 000000
2014-02-10 01:54:01,0.42,2.60,0.00,-6.68,-0.97,0.72,6.90,31.04,1040.05,2145.89,2741.18,2763.74,2986.37,350.50,368.83,7.98,0000 0000 0000 0000 000000
2014-02-10 01:55:02,0.50,2.60,0.00,-6.68,-0.97,0.68,7.08,31.25,1040.05,2145.90,2740.29,2763.11,2985.60,351.03,369.14,7.99,0000 0000 0000 0000 000000
2014-02-10 01:56:02,0.49,2.60,0.00,-6.65,-0.97,0.67,7.05,31.08,1040.05,2145.90,2739.43,2762.43,2984.90,350.61,369.34,7.99,0000 0000 0000 0000 000000
2014-02-10 01:57:02,0.45,2.61,0.00,-6.68,-0.97,0.68,6.73,30.88,1040.05,2145.89,2738.59,2761.78,2984.25,349.48,367.99,8.00,0000 0000 0000 0000 000000
2014-02-10 01:58:02,0.43,2.61,0.00,-6.68,-0.97,0.74,6.90,31.17,1040.05,2145.88,2737.72,2761.20,2983.53,351.03,368.96,8.01,0000 0000 0000 0000 000000
2014-02-10 01:59:03,0.45,2.61,0.00,-6.68,-0.97,0.74,6.78,30.92,1040.05,2145.90,2736.87,2760.52,2982.85,349.85,368.17,8.01,0000 0000 0000 0000 000000
2014-02-10 02:00:03,0.51,2.62,0.00,-6.71,-0.97,0.72,6.72,30.88,1040.05,2145.92,2736.04,2759.88,2982.21,348.50,367.13,8.02,0000 0000 0000 0000 000000
2014-02-10 02:01:03,0.46,2.62,0.00,-6.74,-0.97,0.70,6.63,31.04,1040.05,2145.89,2735.21,2759.23,2981.47,350.44,368.91,8.02,0000 0000 0000 0000 000000
2014-02-10 02:02:03,0.40,2.62,0.00,-6.75,-0.96,0.71,6.74,31.04,1040.05,2145.75,2734.28,2758.52,2980.71,349.82,368.27,8.03,0000 0000 0000 0000 000000
2014-02-10 02:03:04,0.39,2.62,0.00,-6.73,-0.96,0.70,6.77,31.04,1040.05,2145.73,2733.41,2757.91,2980.07,349.27,367.65,8.04,0000 0000 0000 0000 000000
2014-02-10 02:04:04,0.45,2.63,0.00,-6.71,-0.96,0.71,6.73,31.04,1040.05,2145.84,2732.56,2757.25,2979.34,349.82,368.62,8.04,0000 0000 0000 0000 000000
2014-02-10 02:05:04,0.51,2.63,0.00,-6.65,-0.96,0.75,6.86,30.92,1040.05,2145.85,2731.71,2756.57,2978.59,350.53,368.89,8.05,0000 0000 0000 0000 000000
2014-02-10 02:06:04,0.54,2.63,0.00,-6.65,-0.96,0.77,6.69,31.08,1040.05,2145.84,2730.86,2755.94,2977.91,349.83,368.15,8.05,0000 0000 0000 0000 000000
2014-02-10 02:07:05,0.45,2.63,0.00,-6.66,-0.96,0.74,6.64,30.92,1040.05,2145.90,2730.10,2755.34,2977.26,349.14,367.43,8.06,0000 0000 0000 0000 000000
2014-02-10 02:08:05,0.44,2.64,0.00,-6.68,-0.96,0.74,6.72,31.04,1040.05,2145.90,2729.27,2754.72,2976.55,349.24,367.70,8.06,0000 0000 0000 0000 000000
2014-02-10 02:09:05,0.46,2.64,0.00,-6.65,-0.96,0.74,7.03,31.13,1040.05,2145.89,2728.47,2754.13,2975.97,350.54,368.91,8.07,0000 0000 0000 0000 000000
2014-02-10 02:10:05,0.40,2.64,0.00,-6.61,-0.96,0.74,6.93,31.33,1040.04,2145.88,2727.64,2753.45,2975.27,350.52,368.81,8.08,0000 0000 0000 0000 000000
2014-02-10 02:11:06,0.46,2.64,0.00,-6.57,-0.95,0.72,6.92,31.29,1040.03,2145.90,2726.78,2752.78,2974.53,349.83,368.40,8.08,0000 0000 0000 0000 000000
2014-02-10 02:12:06,0.53,2.65,0.00,-6.59,-0.95,0.75,6.77,31.29,1040.04,2145.85,2725.93,2752.22,2973.79,349.39,367.59,8.09,0000 0000 0000 0000 000000
2014-02-10 02:13:06,0.35,2.65,0.00,-6.59,-0.95,0.71,6.95,31.17,1040.04,2145.87,2725.18,2751.57,2973.17,349.86,368.10,8.09,0000 0000 0000 0000 000000
2014-02-10 02:14:06,0.49,2.65,0.00,-6.55,-0.95,0.71,6.67,31.08,1040.05,2145.84,2724.41,2751.16,2972.47,349.61,367.78,8.10,0000 0000 0000 0000 000000
2014-02-10 02:15:07,0.30,2.65,0.00,-6.54,-0.95,0.70,6.73,31.17,1040.05,2145.87,2723.60,2750.55,2971.78,349.15,367.38,8.11,0000 0000 0000 0000 000000
2014-02-10 02:16:07,0.54,2.66,0.00,-6.61,-0.95,0.70,6.53,31.25,1040.05,2145.92,2722.74,2749.98,2971.16,349.63,368.00,8.11,0000 0000 0000 0000 000000
2014-02-10 02:17:07,0.45,2.66,0.00,-6.61,-0.95,0.77,6.78,31.04,1040.05,2145.93,2722.10,2749.36,2970.48,350.28,368.55,8.12,0000 0000 0000 0000 000000
2014-02-10 02:18:07,0.40,2.66,0.00,-6.59,-0.95,0.74,6.98,31.25,1040.05,2145.92,2721.37,2748.78,2969.90,350.36,368.25,8.12,0000 0000 0000 0000 000000
2014-02-10 02:19:08,0.42,2.67,0.00,-6.59,-0.95,0.73,6.84,31.00,1040.05,2145.90,2720.57,2748.20,2969.25,350.31,368.19,8.13,0000 0000 0000 0000 000000
2014-02-10 02:20:08,0.39,2.67,0.00,-6.59,-0.95,0.74,7.03,31.29,1040.05,2145.84,2719.72,2747.52,2968.55,350.40,369.03,8.13,0000 0000 0000 0000 000000
2014-02-10 02:21:08,0.45,2.67,0.00,-6.57,-0.95,0.75,6.80,31.04,1040.05,2145.84,2718.87,2746.96,2967.90,349.99,367.88,8.14,0000 0000 0000 0000 000000
2014-02-10 02:22:08,0.43,2.67,0.00,-6.55,-0.95,0.78,6.86,31.17,1040.05,2145.80,2718.00,2746.35,2967.22,349.94,368.12,8.15,0000 0000 0000 0000 000000
2014-02-10 02:23:08,0.39,2.68,0.00,-6.53,-0.95,0.77,7.01,31.13,1040.05,2145.89,2717.16,2745.68,2966.51,349.77,367.91,8.15,0000 0000 0000 0000 000000
2014-02-10 02:24:09,0.55,2.68,0.00,-6.56,-0.95,0.74,6.92,31.21,1040.05,2145.92,2716.32,2745.11,2965.80,350.09,368.31,8.16,0000 0000 0000 0000 000000
2014-02-10 02:25:09,0.45,2.68,0.00,-6.60,-0.95,0.76,6.94,31.25,1040.05,2145.93,2715.49,2744.45,2965.20,350.04,368.90,8.16,0000 0000 0000 0000 000000
2014-02-10 02:26:09,0.46,2.68,0.00,-6.64,-0.95,0.76,6.77,30.92,1040.05,2145.91,2714.69,2743.82,2964.53,349.46,367.73,8.17,0000 0000 0000 0000 000000
2014-02-10 02:27:09,0.42,2.69,0.00,-6.64,-0.95,0.76,6.72,31.04,1040.05,2145.86,2713.88,2743.19,2963.81,349.77,368.06,8.18,0000 0000 0000 0000 000000
2014-02-10 02:28:10,0.40,2.69,0.00,-6.64,-0.95,0.78,6.85,31.17,1040.05,2145.79,2713.02,2742.53,2963.15,349.60,367.88,8.18,0000 0000 0000 0000 000000
2014-02-10 02:29:10,0.43,2.69,0.00,-6.58,-0.95,0.78,6.80,31.00,1040.05,2145.82,2712.20,2741.91,2962.44,349.96,368.71,8.19,0000 0000 0000 0000 000000
2014-02-10 02:30:10,0.49,2.69,0.00,-6.54,-0.95,0.79,7.13,31.29,1040.05,2145.78,2711.28,2741.27,2961.71,351.06,369.29,8.19,0000 0000 0000 0000 000000
2014-02-10 02:31:10,0.44,2.70,0.00,-6.51,-0.95,0.77,6.89,31.04,1040.06,2145.81,2710.43,2740.57,2961.08,350.01,368.15,8.20,0000 0000 0000 0000 000000
2014-02-10 02:32:11,0.49,2.70,0.00,-6.54,-0.95,0.73,7.01,31.25,1040.07,2145.80,2709.59,2739.98,2960.41,350.62,368.83,8.20,0000 0000 0000 0000 000000
2014-02-10 02:33:11,0.41,2.70,0.00,-6.53,-0.95,0.74,6.93,31.08,1040.07,2145.76,2708.79,2739.34,2959.68,349.99,368.01,8.21,0000 0000 0000 0000 000000
2014-02-10 02:34:11,0.46,2.70,0.00,-6.50,-0.95,0.80,6.85,31.21,1040.07,2145.75,2707.91,2738.65,2958.96,349.19,367.27,8.22,0000 0000 0000 0000 000000
2014-02-10 02:35:11,0.47,2.71,0.00,-6.46,-0.95,0.78,6.92,31.13,1040.08,2145.52,2707.01,2737.97,2958.24,349.74,367.80,8.22,0000 0000 0000 0000 000000
2014-02-10 02:36:12,0.27,2.71,0.00,-6.50,-0.95,0.78,6.87,31.17,1040.08,2145.47,2706.35,2737.37,2957.51,350.53,368.93,8.23,0000 0000 0000 0000 000000
2014-02-10 02:37:12,0.43,2.71,0.00,-6.47,-0.95,0.81,6.81,31.00,1040.10,2145.59,2705.75,2736.81,2956.92,349.72,367.48,8.23,0000 0000 0000 0000 000000
2014-02-10 02:38:12,0.47,2.71,0.00,-6.45,-0.95,0.79,6.86,31.21,1040.15,2145.64,2704.96,2736.28,2956.31,349.86,368.34,8.24,0000 0000 0000 0000 000000